Wetbulb
37.43 33.34 31.39 34.33 37.72 39.49 38.12 35.95 34.18 35.26 40.41 38.05 35.63 34.72 39.10 41.72 43.46 41.99 41.28 41.01 41.49 42.56 44.07 45.08 45.93 45.96 45.96 46.04 46.28 46.24 47.41 47.94 50.73 49.42 49.25 48.52 46.76 46.12 46.50 47.39 47.42 47.83 47.98 48.06
34.10 31.29 35.97 38.52 38.89 39.79 39.07 36.02 34.00 37.27 40.30 38.31 32.87 32.48 34.84 37.33 38.63 41.63 40.39 39.80 40.55 40.63 41.62 43.11 43.85 45.14 45.18 44.76 45.42 45.60 45.35 45.87 46.89 47.40 46.85 46.72 46.66 46.21 45.80 45.83 46.27 46.67 46.90 46.79
31.61 34.76 39.43 39.07 37.31 37.85 36.18 36.60 34.74 36.10 36.92 35.71 35.36 32.15 34.57 38.38 38.94 40.91 41.43 42.09 41.77 40.98 40.25 41.40 42.66 43.32 44.30 43.96 44.47 44.27 44.12 44.45 44.95 45.28 46.51 45.73 45.05 45.22 44.11 43.61 43.81 44.86 45.83 45.78
34.42 38.41 38.00 36.60 36.61 38.35 34.20 39.84 39.55 37.46 35.43 29.44 35.47 26.81 32.41 36.63 37.42 39.79 40.24 40.15 41.58 40.78 40.92 41.28 41.34 41.80 43.68 43.49 44.14 44.17 44.36 43.90 44.52 44.04 43.84 43.12 42.94 42.31 42.09 42.18 42.42 43.48 44.29 44.70
33.86 35.58 35.37 34.74 36.73 39.97 37.15 41.26 40.01 38.81 34.50 32.43 31.54 29.19 31.35 37.31 35.35 36.59 39.72 41.30 41.17 41.57 41.16 40.69 41.09 41.71 42.15 42.76 42.01 43.79 43.75 44.07 43.87 43.21 43.43 43.60 42.16 42.31 42.18 41.47 41.19 41.48 42.28 43.20
36.02 37.92 38.18 37.72 39.54 40.70 41.64 40.02 39.16 38.00 34.83 26.46 32.59 31.26 27.25 32.40 37.38 39.43 40.71 41.96 40.62 40.74 40.79 42.23 41.76 41.88 40.78 40.28 40.98 41.37 42.31 42.98 43.50 42.96 42.23 42.14 41.22 40.45 39.78 39.66 39.64 40.11 40.78 41.27
34.03 36.01 38.88 40.79 36.12 38.37 40.04 36.09 27.13 25.58 27.32 25.09 34.48 30.73 32.87 37.51 40.74 42.01 40.71 41.92 41.01 40.98 40.59 40.87 40.22 39.81 39.71 39.53 40.11 41.25 41.99 41.72 42.49 42.24 41.60 41.08 40.68 39.99 39.21 39.45 39.24 39.23 39.18 39.21
29.58 28.11 36.44 40.23 37.91 36.68 36.49 36.48 27.47 24.29 24.55 26.53 35.07 30.01 34.25 42.03 42.87 43.73 44.10 42.74 41.84 40.23 40.92 40.46 40.96 40.70 41.02 41.04 40.37 41.54 41.69 41.43 41.94 41.92 41.56 41.46 41.39 40.80 40.30 40.17 39.45 39.19 39.06 39.16
30.07 31.09 38.79 40.46 40.97 42.14 36.36 34.83 38.06 29.96 29.09 26.01 28.95 33.50 38.91 40.33 40.00 41.25 40.76 41.11 40.20 40.57 40.06 40.70 41.17 40.41 40.66 40.16 40.41 41.13 41.75 41.74 41.91 41.83 41.49 41.20 40.98 40.30 39.67 39.53 39.43 38.74 39.42 40.99
36.59 30.59 38.30 39.79 41.80 39.54 39.77 40.21 31.03 28.69 20.75 22.74 25.68 28.08 30.99 35.25 36.78 38.84 38.83 39.31 39.95 40.14 40.10 41.11 41.15 40.45 41.33 40.85 40.38 40.49 41.63 41.26 41.36 41.05 40.52 40.68 40.07 39.83 39.17 39.18 38.49 38.51 38.59 38.78
37.11 33.81 33.87 38.54 34.70 33.60 35.51 33.31 33.07 32.01 28.74 24.38 20.57 25.13 35.47 37.07 38.26 38.40 39.00 39.93 39.87 39.30 40.00 40.65 41.08 41.04 40.83 40.41 39.80 39.86 40.60 40.83 40.40 40.35 40.35 40.21 39.47 39.69 39.14 38.73 38.01 38.20 38.59 38.57
37.64 33.75 28.69 33.47 37.94 39.18 37.09 35.57 34.11 26.30 21.95 24.93 23.93 25.02 39.55 38.50 39.44 40.99 39.95 40.60 40.53 40.76 40.59 40.93 40.88 40.67 39.79 39.80 39.22 39.81 39.93 40.64 40.57 40.40 40.14 39.89 39.67 39.03 38.29 38.06 37.94 37.95 38.31 38.63
36.88 28.55 25.87 29.32 33.45 34.90 33.63 35.68 35.31 32.68 29.80 27.29 22.66 25.01 39.53 39.31 38.96 40.05 39.52 40.26 40.36 40.49 40.12 40.54 40.37 40.56 40.50 39.78 39.77 39.65 40.29 40.70 40.88 40.69 39.70 39.45 38.96 38.29 37.40 37.48 37.77 37.87 37.80 37.67
41.16 31.43 29.40 25.21 29.80 32.86 31.21 35.62 36.22 34.19 27.13 27.87 27.97 30.74 35.70 36.93 37.50 38.16 38.75 39.70 40.12 39.86 40.37 40.22 40.15 40.80 41.09 40.52 40.33 40.34 39.93 40.95 41.12 40.48 39.45 38.39 38.28 37.88 37.06 37.08 36.86 37.51 37.85 37.48
37.13 29.32 31.02 32.93 36.35 35.35 33.56 34.73 35.40 32.67 32.40 30.07 31.99 32.73 35.96 37.49 37.73 38.90 39.84 40.06 40.20 39.64 40.05 40.29 40.08 40.37 40.67 40.54 40.42 40.96 40.47 40.45 41.09 40.27 39.31 38.65 38.35 38.04 37.30 36.75 36.80 37.35 37.70 37.83
35.27 28.24 30.26 25.98 35.27 35.84 32.97 34.33 35.58 35.00 33.82 33.50 34.60 33.73 38.65 39.88 39.36 38.99 39.78 40.33 40.28 40.30 40.55 40.92 41.11 40.90 41.14 41.04 40.60 40.82 40.01 39.75 40.99 40.18 39.53 39.65 38.62 37.94 36.97 36.13 36.07 36.10 36.52 36.93
33.26 28.97 27.15 26.02 32.66 33.39 27.19 31.21 34.03 34.13 35.42 35.41 30.57 35.68 38.18 37.74 39.41 39.47 39.88 41.03 41.32 41.84 41.47 41.22 41.50 41.30 42.00 41.94 41.89 40.30 40.09 40.08 39.83 40.19 40.19 39.98 38.98 37.76 36.80 36.26 35.51 35.47 35.14 34.99
31.75 30.92 28.16 22.76 29.40 20.25 32.23 37.56 37.19 36.30 36.27 37.42 37.37 37.69 39.54 40.26 42.12 42.37 42.97 42.21 42.43 43.21 43.07 42.41 42.56 42.49 42.72 42.90 42.02 41.53 40.73 40.01 39.31 39.67 40.04 39.72 38.98 37.67 36.30 35.64 34.74 34.32 34.67 34.41
35.87 30.99 27.44 22.97 22.06 28.00 32.50 35.56 34.49 33.33 33.18 37.15 38.98 38.75 39.59 39.08 39.53 38.84 43.92 44.57 44.31 44.68 44.84 44.08 43.91 43.58 42.73 42.52 42.39 41.16 40.27 39.91 39.43 39.23 39.48 39.54 39.12 37.80 36.31 33.80 31.44 33.17 34.07 33.32
36.48 34.43 29.52 24.15 19.52 18.06 30.39 37.19 39.18 37.73 28.45 36.94 38.38 38.11 38.36 38.28 32.96 38.71 42.63 44.89 44.95 45.65 45.38 44.27 44.07 43.86 42.28 42.42 42.24 41.03 39.97 39.51 39.09 39.62 39.84 39.61 39.30 38.02 36.18 35.01 33.13 33.30 33.76 34.06
28.56 27.28 24.56 19.99 20.45 26.80 34.45 38.47 40.12 27.70 29.27 38.04 38.52 38.77 37.52 36.55 41.26 42.99 43.71 44.67 45.95 45.64 44.50 44.62 44.07 43.25 42.16 42.42 42.00 40.78 40.09 39.42 40.84 40.65 40.12 39.35 38.92 37.54 36.70 34.81 33.68 33.56 33.90 33.22
28.84 25.37 23.56 25.20 17.93 19.98 37.52 36.78 33.29 36.14 37.08 39.73 39.29 39.45 38.44 39.04 40.31 42.59 43.58 44.53 45.01 44.12 43.59 44.16 43.55 42.93 42.67 42.25 42.32 40.93 39.86 41.51 41.27 40.63 39.83 39.04 37.97 37.47 36.14 33.99 33.08 33.52 32.72 30.92
28.06 31.14 28.25 29.76 28.24 36.04 37.86 37.70 39.66 40.25 39.86 40.48 41.24 41.13 41.50 40.17 40.07 41.48 43.29 44.11 44.64 44.40 43.80 44.52 43.79 42.00 42.00 42.18 42.93 40.81 41.31 41.18 40.62 39.69 38.73 37.96 37.03 35.36 34.63 33.06 32.40 31.59 31.20 29.68
33.69 37.73 32.00 31.52 34.30 35.97 37.67 39.54 41.28 40.93 40.76 42.79 42.16 41.27 41.38 39.97 39.69 40.74 42.04 43.87 44.11 44.47 43.79 44.06 43.21 41.15 40.24 41.67 42.73 42.96 41.69 41.48 40.75 39.27 37.68 36.58 35.72 33.79 33.31 32.89 32.70 31.14 28.06 26.45
32.96 36.06 34.29 33.40 36.09 37.55 38.12 38.60 39.56 40.59 41.34 41.30 42.29 41.33 41.00 40.64 38.95 39.27 40.52 43.31 44.06 44.04 43.91 43.79 42.64 41.25 40.79 41.81 42.29 42.15 40.91 41.36 40.03 38.97 37.25 36.12 35.63 34.61 32.66 31.71 31.55 31.16 30.78 31.23
33.80 32.54 30.79 30.18 37.72 36.45 37.01 39.00 40.90 40.70 40.48 41.04 40.55 40.98 40.11 39.92 39.40 39.06 39.20 41.65 43.39 43.15 43.41 42.86 42.55 41.78 41.37 41.69 41.85 40.71 41.75 41.52 39.91 37.33 35.95 35.37 34.04 32.94 32.16 30.45 28.14 32.16 33.35 32.99
MSLP
1010.01 1010.82 1010.98 1011.17 1011.31 1011.66 1012.49 1013.54 1014.30 1014.69 1014.91 1015.68 1016.64 1017.22 1017.43 1017.86 1018.31 1018.84 1019.67 1020.23 1020.95 1021.37 1021.57 1021.55 1021.72 1021.78 1021.60 1021.64 1021.99 1022.11 1022.25 1022.48 1022.51 1022.66 1023.01 1023.35 1023.59 1023.92 1023.90 1023.75 1023.90 1023.53 1023.36 1023.15
1010.81 1010.61 1010.24 1010.70 1011.01 1011.34 1011.99 1013.17 1014.15 1014.78 1015.27 1016.03 1017.39 1017.91 1018.07 1018.20 1018.42 1018.78 1019.56 1020.33 1021.08 1021.66 1021.85 1022.03 1022.04 1022.08 1021.94 1022.19 1022.82 1022.91 1022.67 1022.87 1023.06 1022.97 1023.22 1023.49 1023.96 1024.45 1024.63 1024.70 1024.10 1024.07 1023.99 1024.00
1010.23 1009.83 1009.73 1010.35 1010.67 1011.08 1011.59 1012.21 1013.43 1014.28 1015.71 1016.82 1017.42 1018.39 1018.38 1018.28 1018.36 1018.86 1019.40 1019.88 1020.74 1021.31 1021.84 1022.24 1022.49 1022.58 1022.77 1022.51 1023.10 1023.28 1023.35 1023.26 1023.42 1023.46 1023.44 1023.99 1024.27 1024.93 1025.06 1025.17 1024.94 1025.00 1024.85 1024.63
1009.98 1009.34 1009.49 1009.66 1010.02 1010.23 1011.00 1011.34 1012.47 1013.94 1015.34 1016.79 1017.04 1017.92 1017.83 1017.86 1018.23 1018.59 1019.25 1019.83 1020.39 1021.07 1021.65 1022.00 1022.23 1022.77 1022.72 1023.15 1023.37 1023.54 1023.91 1023.92 1023.93 1023.84 1023.91 1024.53 1025.07 1025.63 1025.97 1025.92 1025.74 1025.77 1025.48 1025.10
1008.85 1008.67 1009.00 1009.06 1008.92 1009.57 1010.12 1010.83 1012.12 1013.73 1015.14 1016.24 1017.15 1017.56 1016.63 1017.15 1017.69 1017.71 1017.95 1018.46 1019.48 1020.32 1021.00 1021.75 1022.26 1022.71 1023.23 1023.33 1023.91 1023.94 1024.31 1024.31 1024.54 1024.38 1024.30 1025.23 1025.47 1026.06 1026.40 1026.37 1026.03 1026.34 1026.07 1025.65
1008.31 1007.91 1008.04 1007.83 1008.08 1008.68 1009.34 1011.02 1012.53 1013.81 1015.17 1016.32 1015.88 1016.46 1016.18 1016.29 1015.12 1016.43 1017.12 1017.61 1018.53 1019.77 1020.77 1021.59 1022.20 1022.76 1023.45 1023.89 1024.21 1024.22 1024.52 1024.80 1024.83 1024.91 1025.18 1025.43 1025.81 1026.56 1026.94 1026.81 1026.61 1026.63 1026.32 1026.34
1008.18 1007.58 1007.22 1006.91 1007.73 1008.36 1009.17 1010.98 1013.40 1014.95 1015.83 1015.90 1015.85 1016.35 1014.39 1013.75 1013.64 1014.03 1014.99 1016.54 1017.85 1019.14 1020.41 1021.36 1022.19 1022.84 1023.48 1023.94 1024.37 1024.59 1024.75 1025.15 1025.42 1025.52 1025.76 1025.91 1026.27 1026.72 1026.83 1026.88 1026.92 1026.83 1026.95 1026.89
1007.51 1007.33 1006.54 1006.18 1006.68 1007.55 1008.90 1010.17 1012.23 1014.01 1015.76 1016.15 1015.78 1015.20 1012.48 1012.08 1012.63 1013.39 1014.58 1016.11 1017.87 1019.14 1020.05 1020.91 1021.67 1022.32 1023.00 1023.77 1024.27 1024.68 1024.80 1025.24 1025.58 1025.89 1026.32 1026.52 1026.42 1026.46 1026.63 1026.90 1026.99 1027.30 1027.31 1027.03
1006.79 1006.67 1005.64 1005.54 1005.99 1006.57 1008.64 1009.57 1010.87 1013.69 1015.31 1015.74 1015.21 1013.99 1012.43 1011.79 1012.43 1013.12 1014.41 1015.58 1016.80 1018.13 1019.26 1020.45 1021.39 1022.02 1022.80 1023.55 1024.09 1024.40 1024.84 1025.43 1025.68 1026.11 1026.57 1026.72 1026.74 1026.71 1026.77 1026.96 1027.20 1027.54 1027.08 1026.88
1006.10 1006.40 1005.56 1005.49 1005.83 1006.58 1007.03 1009.08 1011.26 1013.03 1015.00 1015.66 1015.02 1013.86 1012.58 1012.16 1012.66 1013.36 1014.36 1015.05 1016.33 1017.62 1018.89 1019.96 1020.92 1021.79 1022.49 1023.26 1023.99 1024.51 1024.78 1025.41 1025.62 1026.10 1026.70 1026.83 1026.86 1026.85 1027.10 1027.07 1027.32 1027.38 1027.18 1027.15
1005.96 1006.44 1006.14 1005.83 1005.65 1006.44 1007.93 1009.04 1010.65 1012.26 1013.75 1014.86 1015.19 1013.51 1011.59 1011.48 1011.86 1012.45 1013.10 1014.18 1015.35 1016.66 1017.98 1019.35 1020.54 1021.50 1022.11 1023.05 1023.80 1024.52 1024.86 1025.36 1025.74 1026.22 1026.71 1026.92 1026.97 1027.15 1027.10 1027.12 1027.33 1027.26 1027.33 1027.25
1005.82 1006.66 1006.80 1006.11 1005.86 1005.92 1006.95 1008.45 1009.81 1011.75 1013.97 1014.45 1014.14 1012.73 1011.37 1011.35 1011.51 1011.86 1012.80 1013.87 1015.30 1016.33 1017.61 1018.97 1020.18 1021.18 1022.03 1022.91 1023.89 1024.41 1024.85 1025.11 1025.47 1026.08 1026.61 1026.93 1027.11 1027.11 1027.13 1027.23 1027.31 1027.49 1027.56 1027.72
1005.63 1006.50 1007.43 1007.08 1006.99 1006.82 1007.10 1008.18 1009.18 1010.58 1012.22 1013.37 1013.65 1012.50 1011.31 1011.04 1011.67 1012.15 1013.16 1014.27 1015.44 1016.58 1017.89 1019.07 1020.14 1020.81 1021.72 1022.70 1023.55 1024.11 1024.44 1024.78 1025.36 1026.05 1026.55 1026.83 1026.98 1027.11 1027.24 1027.37 1027.54 1027.84 1027.91 1028.21
1005.43 1006.47 1006.95 1007.03 1006.86 1007.13 1007.59 1008.13 1008.85 1009.65 1011.36 1012.16 1011.98 1011.74 1011.38 1011.54 1011.96 1012.51 1013.13 1014.02 1015.06 1016.00 1017.05 1018.25 1019.43 1020.21 1021.17 1022.01 1022.83 1023.53 1024.11 1024.53 1025.20 1025.84 1026.28 1026.66 1026.87 1026.99 1027.25 1027.60 1027.85 1028.03 1028.23 1028.24
1005.62 1006.75 1007.13 1007.04 1006.94 1006.92 1007.12 1007.70 1008.29 1008.79 1009.54 1010.20 1010.80 1011.00 1010.85 1010.96 1011.27 1011.60 1012.57 1013.86 1014.85 1015.88 1016.83 1017.63 1018.49 1019.55 1020.61 1021.59 1022.40 1023.05 1023.76 1024.43 1024.88 1025.46 1025.95 1026.34 1026.66 1027.06 1027.44 1027.79 1028.10 1028.17 1028.17 1028.15
1006.39 1007.18 1007.46 1007.59 1007.24 1006.99 1007.18 1007.28 1007.61 1008.12 1008.80 1009.15 1009.49 1009.72 1009.34 1009.86 1010.98 1011.89 1012.42 1013.22 1013.89 1014.63 1015.48 1016.45 1017.56 1018.72 1019.81 1020.79 1021.74 1022.47 1023.21 1023.88 1024.34 1025.04 1025.66 1026.11 1026.63 1027.12 1027.58 1027.88 1028.02 1028.18 1028.29 1028.29
1007.29 1007.68 1008.32 1008.53 1007.76 1007.69 1007.33 1006.60 1007.05 1007.53 1007.78 1007.97 1008.79 1008.56 1009.01 1009.91 1010.50 1011.09 1011.78 1012.23 1012.67 1013.43 1014.43 1015.52 1016.58 1017.67 1018.84 1019.94 1020.81 1021.75 1022.51 1023.24 1023.94 1024.64 1025.32 1025.92 1026.48 1027.07 1027.45 1027.72 1028.03 1028.22 1028.25 1028.27
1007.98 1007.88 1008.42 1009.37 1008.67 1008.05 1005.99 1005.49 1005.71 1006.31 1006.69 1007.15 1007.40 1007.83 1008.10 1008.34 1008.72 1009.32 1009.95 1010.42 1011.49 1012.35 1013.19 1014.24 1015.42 1016.77 1017.98 1019.08 1020.15 1021.02 1021.88 1022.71 1023.47 1024.28 1024.93 1025.56 1026.15 1026.68 1027.16 1027.61 1027.90 1028.00 1028.13 1028.26
1007.92 1008.30 1009.22 1009.89 1009.40 1007.73 1006.30 1005.63 1005.70 1006.13 1006.51 1006.41 1006.73 1007.15 1007.50 1007.94 1008.67 1009.10 1009.11 1009.39 1009.66 1010.48 1011.60 1012.83 1014.20 1015.65 1017.11 1018.25 1019.34 1020.43 1021.44 1022.23 1022.99 1023.76 1024.34 1024.98 1025.58 1026.28 1026.91 1027.45 1027.65 1027.81 1028.04 1028.19
1007.93 1008.16 1009.00 1010.00 1009.52 1007.78 1006.42 1005.16 1004.77 1005.44 1006.11 1005.90 1006.05 1006.68 1007.16 1007.86 1008.77 1008.04 1008.17 1008.75 1009.48 1010.17 1011.08 1012.24 1013.65 1014.96 1016.27 1017.36 1018.52 1019.74 1020.75 1021.62 1022.33 1022.98 1023.58 1024.30 1024.96 1025.66 1026.35 1026.81 1027.31 1027.59 1027.81 1027.98
1008.57 1008.93 1009.48 1009.97 1009.21 1008.00 1006.10 1005.33 1004.93 1005.58 1006.03 1005.12 1005.41 1005.68 1006.43 1007.10 1006.49 1006.23 1006.82 1007.73 1008.16 1008.95 1010.12 1011.56 1012.84 1013.93 1015.21 1016.51 1017.71 1018.88 1019.87 1020.66 1021.15 1022.09 1022.92 1023.75 1024.43 1025.05 1025.62 1026.29 1026.88 1027.25 1027.64 1028.03
1008.30 1008.88 1009.75 1009.65 1009.17 1007.74 1005.79 1005.50 1005.48 1005.30 1004.91 1004.66 1004.95 1005.12 1005.85 1005.81 1005.65 1006.17 1006.43 1006.80 1007.60 1008.72 1009.98 1010.97 1012.04 1013.33 1014.54 1015.67 1016.74 1017.93 1018.84 1019.25 1020.43 1021.36 1022.24 1023.10 1023.82 1024.58 1025.28 1025.91 1026.55 1027.07 1027.59 1028.11
1008.35 1008.03 1008.41 1008.67 1007.88 1006.63 1005.87 1005.47 1005.29 1005.07 1004.85 1004.64 1004.71 1004.63 1004.84 1005.22 1005.26 1005.68 1005.97 1006.43 1007.03 1007.64 1008.70 1010.01 1011.18 1012.62 1013.80 1014.78 1015.63 1016.82 1017.39 1018.75 1019.87 1020.87 1021.64 1022.43 1023.25 1024.03 1024.76 1025.57 1026.36 1027.13 1027.50 1027.96
1008.41 1007.98 1008.26 1008.41 1007.99 1007.10 1006.60 1006.15 1005.91 1005.64 1005.38 1004.63 1004.31 1004.37 1004.47 1004.74 1004.75 1005.09 1005.54 1005.87 1006.51 1007.19 1008.18 1009.19 1010.70 1012.02 1013.11 1013.96 1014.70 1015.11 1016.63 1017.84 1019.10 1020.20 1021.10 1021.97 1022.89 1023.84 1024.53 1025.11 1025.73 1026.55 1027.20 1027.57
1009.88 1009.03 1008.38 1008.81 1008.37 1007.62 1007.25 1007.12 1006.73 1006.27 1005.76 1005.26 1004.81 1004.44 1004.51 1004.54 1004.61 1004.79 1005.18 1005.54 1005.87 1006.44 1007.51 1008.68 1009.53 1010.61 1011.73 1012.82 1013.84 1014.87 1016.04 1017.15 1018.48 1019.58 1020.63 1021.56 1022.43 1023.35 1024.29 1024.79 1025.29 1025.88 1026.34 1026.59
1010.74 1010.39 1009.88 1009.24 1008.95 1008.30 1007.83 1007.53 1007.07 1006.79 1006.54 1006.04 1005.57 1005.03 1004.66 1004.48 1004.54 1004.49 1004.87 1005.23 1005.51 1006.27 1007.16 1008.24 1009.06 1009.98 1011.12 1012.28 1013.40 1014.49 1015.40 1016.36 1017.66 1019.15 1020.29 1021.11 1022.05 1023.06 1023.86 1024.67 1025.33 1025.63 1025.67 1026.00
Wind_Speed
2 4 8 9 7 6 7 9 5 2 5 6 2 5 13 9 9 11 8 8 7 7 4 4 6 4 9 8 7 7 6 5 6 4 4 5 5 5 5 7 7 9 8 9
4 8 10 6 5 8 7 10 4 4 5 7 2 0 3 5 5 12 11 8 8 6 6 4 5 4 6 7 6 6 6 5 4 3 3 4 4 5 4 4 8 9 9 8
8 5 12 7 6 8 4 11 6 9 5 5 7 4 5 4 2 5 7 10 9 13 10 7 7 5 4 7 6 6 6 6 6 6 8 6 5 3 5 5 5 7 7 7
7 6 6 7 6 7 6 7 10 16 9 5 4 5 6 9 8 10 8 9 11 10 7 7 7 6 7 5 6 7 6 6 6 5 7 7 6 7 2 2 3 5 7 7
10 6 8 5 8 8 8 11 13 12 9 6 3 1 5 12 11 12 16 17 13 14 13 11 9 9 6 7 6 6 6 7 6 7 8 7 9 5 2 3 6 6 5 7
8 1 8 12 5 9 7 7 5 5 5 2 11 7 4 10 27 15 14 17 17 14 11 11 8 9 7 6 6 7 7 5 6 7 7 9 9 6 5 3 5 3 4 4
2 10 5 4 5 3 7 8 3 2 2 5 3 2 10 12 12 23 23 20 18 16 15 13 12 10 8 8 7 6 8 6 6 7 7 7 8 7 7 5 3 5 3 3
9 5 10 6 8 9 9 10 7 5 5 3 5 8 12 10 13 16 14 12 16 16 14 14 14 12 12 10 8 8 8 7 7 7 6 5 6 4 4 4 4 3 2 3
7 6 2 8 5 13 4 12 10 9 1 4 5 7 9 2 7 11 14 19 20 19 16 16 13 11 12 10 9 9 8 6 7 6 5 5 5 6 5 6 4 2 2 3
3 4 5 5 6 3 13 10 6 3 7 4 3 4 9 6 9 10 14 19 19 18 17 16 13 12 11 11 8 8 9 8 7 7 5 5 6 6 5 5 5 5 4 4
4 4 4 6 7 8 4 3 6 7 5 7 3 8 8 10 12 20 19 19 21 20 19 16 14 12 12 10 9 7 8 8 7 7 6 6 5 5 5 5 4 4 4 5
7 5 5 6 3 6 7 9 7 8 6 1 5 8 2 6 10 12 15 17 16 18 18 16 14 12 12 13 10 10 8 9 7 6 6 6 6 6 5 5 4 4 4 3
7 3 2 2 6 3 5 4 5 7 5 8 7 8 3 3 6 7 13 15 15 16 16 15 14 14 14 13 12 10 9 9 8 7 7 6 6 6 5 5 4 3 4 2
8 5 9 8 3 6 6 5 5 8 6 7 7 5 3 4 8 9 11 14 17 18 20 18 15 15 13 13 13 11 9 9 8 7 7 7 6 6 5 5 4 4 3 3
7 6 5 6 7 6 6 7 8 5 6 9 8 8 8 9 12 17 12 14 16 17 18 18 17 15 13 12 11 12 11 9 9 8 7 7 6 6 6 5 5 4 3 2
3 5 4 6 7 9 6 9 10 6 5 6 10 6 6 4 7 8 15 17 19 19 20 19 18 17 16 15 14 13 12 10 10 9 7 6 6 6 6 6 5 4 3 2
2 7 5 5 5 7 5 10 8 5 5 9 7 9 8 5 11 14 15 18 21 20 20 19 20 19 17 16 15 14 12 9 10 10 8 8 7 7 6 6 5 5 4 2
4 4 4 4 5 7 6 6 13 14 9 7 4 8 13 10 16 17 19 23 20 20 21 20 18 17 16 15 14 12 12 12 11 10 9 8 8 7 7 6 6 4 3 3
6 3 4 7 3 1 1 4 9 8 8 10 11 7 8 4 5 5 15 19 23 24 21 19 18 18 16 16 15 14 13 13 12 11 11 10 9 8 7 7 6 4 3 2
4 2 5 3 6 7 6 4 7 7 6 5 10 9 10 8 5 9 13 17 15 15 16 17 17 17 17 17 17 16 15 13 13 12 12 10 9 9 8 7 7 4 3 4
2 3 5 2 2 5 6 3 3 8 9 4 8 9 8 7 13 9 13 15 18 17 18 16 18 19 19 17 18 17 15 16 15 12 10 10 9 8 8 7 5 5 5 5
6 6 3 3 4 4 5 2 7 7 3 3 4 6 8 10 8 6 12 16 17 17 16 19 18 17 17 18 19 18 18 16 13 13 12 11 9 7 6 8 5 5 6 5
2 5 5 7 7 4 3 2 2 3 3 4 6 5 6 8 8 8 11 13 16 20 19 18 18 17 16 18 19 19 17 14 14 12 12 11 9 7 7 7 7 4 5 4
4 1 3 4 4 4 6 5 8 6 5 5 4 5 6 5 2 6 7 12 14 16 17 18 17 17 17 18 19 20 16 16 15 14 12 10 10 8 6 5 5 5 4 4
3 6 3 1 6 2 5 7 6 9 10 9 6 4 5 5 1 2 7 9 13 16 16 17 19 19 20 19 18 14 16 17 15 13 11 10 9 10 7 5 6 5 5 5
3 3 1 3 4 2 4 4 6 8 10 8 6 5 3 3 2 1 4 7 10 14 14 15 16 16 16 18 17 14 17 18 16 12 9 9 9 7 6 6 2 1 5 9
Wind_Direction
162 119 196 193 176 160 128 117 136 151 146 91 9 137 175 178 169 157 156 142 141 142 162 107 82 83 101 56 54 46 67 62 111 100 103 90 81 64 48 52 43 45 39 37
60 220 212 156 170 156 148 131 131 76 87 87 91 157 169 183 185 175 166 166 162 134 133 130 122 86 80 98 73 48 66 81 87 98 98 101 93 72 70 54 46 39 40 35
170 223 154 170 168 152 175 156 167 145 125 53 114 349 205 217 179 173 194 176 164 168 162 154 137 127 120 103 93 80 61 72 74 90 104 90 76 59 58 30 43 29 42 47
230 219 158 161 184 146 157 184 141 134 132 180 189 238 213 197 198 195 187 173 179 168 156 160 145 147 135 122 107 91 79 79 79 81 89 90 105 102 65 68 54 41 36 45
236 189 169 178 182 156 202 157 158 161 148 111 215 130 253 178 208 202 195 190 180 173 169 168 158 145 146 127 130 103 90 81 77 85 92 104 95 91 92 77 68 46 35 42
226 217 158 192 173 166 143 98 58 88 110 191 200 165 249 178 216 203 197 195 177 173 166 162 155 141 139 136 125 114 101 86 83 90 96 107 109 114 98 88 78 54 50 38
272 252 237 156 138 174 128 119 121 87 247 211 125 203 246 217 215 201 196 190 177 168 166 166 154 152 147 147 141 127 117 105 107 100 96 110 117 119 118 106 94 73 44 36
185 228 177 194 177 174 177 167 149 151 179 239 184 221 239 231 203 204 207 167 166 169 171 168 163 159 156 156 157 139 125 118 114 111 116 117 120 120 107 109 96 99 93 72
159 251 183 160 159 155 194 177 165 112 353 103 200 268 321 191 150 169 166 163 175 171 167 166 164 159 158 158 161 149 135 133 132 127 128 124 123 115 120 114 109 108 82 88
193 170 200 178 101 32 155 154 130 357 137 198 259 243 222 191 176 161 169 178 173 164 163 167 164 164 164 161 156 152 146 151 148 139 145 146 140 127 128 117 107 93 80 66
167 115 260 134 176 156 119 159 58 107 128 158 157 257 220 210 175 185 189 178 169 164 164 165 167 167 158 153 153 159 149 146 151 154 152 143 140 135 119 111 103 88 73 65
179 143 229 209 303 165 153 164 148 143 237 87 147 265 285 268 202 189 181 172 165 162 164 165 164 156 151 159 162 167 161 153 159 159 149 150 147 134 118 108 94 80 87 71
177 217 64 27 353 353 146 154 119 105 95 184 142 259 348 87 130 148 154 163 164 159 161 163 164 165 163 166 169 171 165 163 160 155 151 152 146 136 130 124 118 116 114 111
129 149 180 199 169 163 143 163 172 147 143 161 211 183 271 157 150 151 155 159 165 166 167 170 169 171 169 167 170 169 170 165 160 157 156 154 156 150 146 146 143 142 149 127
138 178 165 201 183 156 164 171 165 153 158 172 180 187 212 197 179 187 161 154 163 169 171 174 171 174 172 170 172 170 170 167 162 156 153 163 160 155 149 150 157 154 144 126
294 193 121 217 198 179 178 182 178 157 154 90 157 219 203 169 91 141 169 171 179 180 180 176 176 175 176 174 174 171 170 169 159 157 165 157 156 156 166 163 158 153 160 152
229 133 114 223 165 118 266 192 173 167 166 145 162 209 156 154 171 176 180 184 189 186 182 179 180 179 179 178 173 173 171 157 159 163 164 166 163 165 171 166 164 175 177 153
275 117 105 174 120 192 241 198 177 183 190 189 140 166 181 186 194 186 191 187 192 189 186 184 181 179 179 174 172 166 162 165 163 167 168 168 167 169 170 171 178 172 173 183
204 121 99 135 216 254 307 175 148 152 240 194 202 177 206 145 93 259 202 195 192 191 189 184 177 174 170 171 168 164 167 169 166 173 175 175 170 168 170 183 184 184 167 151
115 42 120 123 154 196 225 221 154 111 248 171 188 187 203 127 157 236 188 196 201 195 181 172 172 172 169 172 164 165 171 172 179 178 180 175 171 173 178 181 182 183 168 157
112 34 148 133 140 296 255 226 150 132 227 201 183 197 177 173 212 207 178 194 195 183 172 165 165 172 176 166 165 172 172 183 183 174 169 170 175 175 177 168 165 163 147 138
166 139 169 78 79 258 188 74 161 218 251 176 206 202 179 222 239 182 188 192 179 171 164 170 169 174 171 168 169 175 182 184 171 168 169 174 174 172 162 161 159 153 148 154
262 171 170 173 208 254 323 19 13 173 233 200 192 210 194 201 222 194 199 187 186 177 174 172 173 167 170 173 176 177 188 165 166 166 174 175 169 165 161 155 158 147 160 166
338 195 119 45 314 326 15 34 29 20 336 308 203 179 174 205 259 209 211 186 183 181 178 172 165 170 172 179 183 190 166 164 165 173 174 167 167 161 164 157 155 157 165 169
308 343 134 281 306 357 51 35 0 355 7 359 317 180 176 162 330 193 202 189 186 183 171 173 175 176 181 178 182 171 164 162 171 171 168 170 167 169 167 172 172 176 196 171
342 354 295 170 234 235 260 360 354 22 359 343 317 285 191 130 105 4 213 197 177 176 171 178 182 176 173 175 175 166 165 168 165 167 168 172 166 168 164 161 153 256 201 194